Weather History for East Milton, MA

Change the Weather History Date:

Friday, November 25, 2011

  Actual Average (KBOS) Record (KBOS)
Temperature  
Mean Temperature 48 °F 42 °F  
Max Temperature 59 °F 48 °F 70 °F (1979)
Min Temperature 37 °F 35 °F 13 °F (1938)
Degree Days  
Heating Degree Days 17 23  
Month to date heating degree days 488  
Since 1 July heating degree days 935  
Cooling Degree Days 0 0  
Month to date cooling degree days 0  
Year to date cooling degree days 747  
Moisture  
Dew Point 35 °F    
Average Humidity 61    
Maximum Humidity 79    
Minimum Humidity 44    
Precipitation  
Precipitation 0.00 in 0.14 in 2.76 in (1983)
Month to date precipitation 3.31  
Year to date precipitation 39.31  
Snow  
Snow 0.00 in 0.10 in 4.70 in (1938)
Month to date snowfall 0.8  
Since 1 July snowfall 0.8  
Since 1 September snowfall 0.8  
Snow Depth -    
Sea Level Pressure  
Sea Level Pressure 30.08 in    
Wind  
Wind Speed 14 mph (WSW)    
Max Wind Speed 17 mph    
Max Gust Speed 23 mph    
T = Trace of Precipitation, MM = Missing Value Source: NWS Daily Summary

Daily Weather History Graph

Daily Weather History Graph

Search for Another Location

Airport:

Trip Planner

Search our weather history database for the weather conditions in past years. The results will help you decide how hot, cold, wet, or windy it might be!

Date:

Astronomy

Nov. 25, 2011 Rise Set
Actual Time 6:46 AM EST 4:15 PM EST
Civil Twilight 6:15 AM EST 4:46 PM EST
Nautical Twilight 5:41 AM EST 5:21 PM EST
Astronomical Twilight 5:07 AM EST 5:54 PM EST
Moon 7:12 AM EST (11/25) 4:39 PM EST (11/25)
Length of Visible Light 10h 31m
Length of Day
9h 29m
New Moon, 0% of the Moon is Illuminated
Nov 25
New Moon
Dec 2
First Quarter
Dec 10
Full
Dec 17
Last Quarter
Dec 24
New

Hourly Weather History & Observations

Time (EST) Temp. Windchill Dew Point Humidity Pressure Visibility Wind Dir Wind Speed Gust Speed Precip Events Conditions
12:54 AM 37.9 °F 28.5 °F 30.9 °F 76% 30.13 in - SSW 17.3 mph - N/A   Unknown
1:54 AM 37.0 °F 28.1 °F 30.9 °F 79% 30.13 in - SW 15.0 mph - N/A   Unknown
2:54 AM 39.9 °F 31.8 °F 33.1 °F 77% 30.12 in - WSW 15.0 mph - N/A   Unknown
3:54 AM 39.0 °F 31.4 °F 33.1 °F 79% 30.12 in - WSW 12.7 mph - N/A   Unknown
4:54 AM 39.9 °F 31.8 °F 33.1 °F 77% 30.12 in - WSW 15.0 mph - N/A   Unknown
5:54 AM 41.0 °F 33.5 °F 33.1 °F 73% 30.12 in - SW 13.8 mph - N/A   Unknown
6:54 AM 41.0 °F 33.1 °F 33.1 °F 73% 30.12 in - SW 15.0 mph - N/A   Unknown
7:54 AM 39.0 °F 30.6 °F 33.1 °F 79% 30.12 in - WSW 15.0 mph 23.0 mph N/A   Unknown
8:54 AM 46.0 °F 39.6 °F 34.0 °F 63% 30.11 in - WSW 15.0 mph - N/A   Unknown
9:54 AM 48.9 °F - 35.1 °F 59% 30.11 in - WSW 12.7 mph 20.7 mph N/A   Unknown
10:54 AM 54.0 °F - 35.1 °F 49% 30.08 in - SW 12.7 mph - N/A   Unknown
11:54 AM 55.9 °F - 35.1 °F 45% 30.05 in - WSW 11.5 mph 21.9 mph N/A   Unknown
12:54 PM 57.9 °F - 36.0 °F 44% 30.04 in - WSW 13.8 mph 20.7 mph N/A   Unknown
1:54 PM 57.9 °F - 37.0 °F 46% 30.03 in - WSW 12.7 mph 18.4 mph N/A   Unknown
2:54 PM 59.0 °F - 37.0 °F 44% 30.03 in - WSW 10.4 mph - N/A   Unknown
4:54 PM 55.0 °F - 36.0 °F 49% 30.04 in - WSW 10.4 mph - N/A   Unknown
5:54 PM 53.1 °F - 36.0 °F 52% 30.05 in - SW 12.7 mph - N/A   Unknown
6:54 PM 52.0 °F - 36.0 °F 54% 30.06 in - WSW 15.0 mph 20.7 mph N/A   Unknown
7:54 PM 51.1 °F - 36.0 °F 56% 30.06 in - WSW 12.7 mph - N/A   Unknown
8:54 PM 50.0 °F - 35.1 °F 57% 30.07 in - WSW 13.8 mph - N/A   Unknown
9:54 PM 50.0 °F - 35.1 °F 57% 30.07 in - WSW 13.8 mph - N/A   Unknown
10:54 PM 50.0 °F - 35.1 °F 57% 30.07 in - SW 15.0 mph 20.7 mph N/A   Unknown
11:54 PM 48.9 °F - 35.1 °F 59% 30.07 in - WSW 13.8 mph - N/A   Unknown